Regional Weather Roundup
Issued by NWS Sterling, VA

Home | Current Version | Previous Version | Graphics & Text | Print | Product List | Glossary On
Versions: 1 2 3 4 5 6 7 8 9 10 11 12 13 14 15 16 17 18 19 20 21 22 23 24 25 26 27 28 29 30 31 32 33 34 35 36 37 38 39 40 41 42 43 44 45 46 47 48 49 50
000
ASUS41 KLWX 221310
RWRLWX

REGIONAL WEATHER ROUNDUP
NATIONAL WEATHER SERVICE BALTIMORE MD/WASHINGTON DC
900 AM EDT TUE JUL 22 2014

Note: "FAIR" indicates few or no clouds below 12,000 feet
with no significant weather and/or obstructions to visibility.
 TC=TEMPERATURE CELSIUS

 * =Non NWS site. Station does not report precipitation (e.g. rain,
    snow, etc.), thunder, or fog.

DCZ001-MDZ009-015-VAZ040>042-051-053>054-221400-
WASHINGTON METRO
  /KDAA//-FT BELVOIR

CITY           SKY/WX    TMP DP  RH WIND       PRES   REMARKS
WASHINGTON NAT PTSUNNY   77  69  76 S10       30.20S
DULLES         CLOUDY    73  69  87 S7        30.20S
ANDREWS AFB    CLOUDY    74  72  92 S7        30.20F
QUANTICO       PTSUNNY   76  71  85 S8        30.21S
COLLEGE PARK*  CLOUDY    77  72  83 CALM      30.20S
LEESBURG*      CLOUDY    73  72  94 S7        30.21S
MANASSAS*      CLOUDY    73  73 100 SE6       30.20S
GAITHERSBURG*  CLOUDY    72  70  94 E3        30.24S

$$

MDZ006>007-011-014-221400-
BALTIMORE METRO

CITY           SKY/WX    TMP DP  RH WIND       PRES   REMARKS
BWI AIRPORT    PTSUNNY   75  70  84 VRB3      30.20S
MD SCIENCE CTR   N/A     77  69  76 MISG      30.20S
MARTIN STATE   MOSUNNY   77  73  88 CALM      30.21S
ANNAPOLIS      MOSUNNY   76  70  82 S5        30.20S
FORT MEADE*    CLOUDY    72  68  88 CALM      30.22S

$$

MDZ012-015-019>023-221400-
MARYLAND EASTERN SHORE

CITY           SKY/WX    TMP DP  RH WIND       PRES   REMARKS
OCEAN CITY     SUNNY     74  69  85 E6        30.21R
SALISBURY      NOT AVBL
BAY BRIDGE AP*   N/A     77  70  78 SE7       30.20S
CAMBRIDGE*     MOSUNNY   77  68  73 CALM      30.20S
EASTON*        SUNNY     77  77 100 CALM      30.24S

$$

MDZ017>025-221400-
SOUTHERN MARYLAND

CITY           SKY/WX    TMP DP  RH WIND       PRES   REMARKS
PATUXENT RIVER CLOUDY    77  69  76 CALM      30.20R
ST INIGOES     CLOUDY    77  69  76 NE3       30.19S
LEONARDTOWN*   CLOUDY    73  68  83 CALM      30.22S

$$

MDZ003>005-221400-
NORTH CENTRAL MARYLAND

CITY           SKY/WX    TMP DP  RH WIND       PRES   REMARKS
FREDERICK*     CLOUDY    73  73 100 CALM      30.22S
HAGERSTOWN APT CLOUDY    74  69  85 SE6       30.20S
WESTMINSTER*   CLOUDY    73  72  94 CALM      30.22S

$$

MDZ501>502-221400-
WESTERN MARYLAND

CITY           SKY/WX    TMP DP  RH WIND       PRES   REMARKS
OAKLAND*       SUNNY     70  70 100 CALM      30.27S
CUMBERLAND*    CLOUDY    73  72  94 CALM      30.23S

$$

VAZ025>031-221400-
SHENANDOAH VALLEY

CITY           SKY/WX    TMP DP  RH WIND       PRES   REMARKS
WINCHESTER*    MOSUNNY   73  70  88 CALM      30.20S
STAUNTON*      PTSUNNY   74  69  83 SW5       30.23S

$$

WVZ021-048>050-054>055-221400-
EASTERN WEST VIRGINIA PANHANDLE

CITY           SKY/WX    TMP DP  RH WIND       PRES   REMARKS
MARTINSBURG    MOSUNNY   76  68  76 CALM      30.20S
PETERSBURG*    CLOUDY    70  62  77 CALM      30.21S

$$

VAZ036>039-050-221400-
CENTRAL FOOTHILLS

CITY           SKY/WX    TMP DP  RH WIND       PRES   REMARKS
CHARLOTTESVILL PTSUNNY   75  71  87 SE5       30.20S
ORANGE*        CLOUDY    73  70  88 SE5       30.22R

$$

VAZ055>057-221400-
NORTH AND CENTRAL PIEDMONT

CITY           SKY/WX    TMP DP  RH WIND       PRES   REMARKS
FREDERICKSBRG* CLOUDY    76  72  88 SW3       30.20R
STAFFORD*      CLOUDY    74  74 100 S5        30.24S

$$

NCZ024-NYZ072-PAZ021-071-VAZ022-071-221400-
OTHER REGIONAL OBSERVATIONS

CITY           SKY/WX    TMP DP  RH WIND       PRES   REMARKS
NEW YORK CITY  SUNNY     76  64  66 CALM      30.20F
PHILADELPHIA   MOSUNNY   76  66  71 SW6       30.20S
PITTSBURGH     MOSUNNY   74  69  85 S3        30.17R
ROANOKE        CLOUDY    73  70  90 SE6       30.24R
RICHMOND       PTSUNNY   76  70  82 CALM      30.20R
RALEIGH        CLOUDY    75  70  84 E5        30.18S HAZE

$$

ANZ530>537-221400-
MARINE OBSERVATIONS

STATION/POSITION TIME  TEMP    WIND        PRES
                       AIR SEA DIR/SP/G
                 (UTC) (F)     (DEG/KT/KT) (MB)
THOMAS PT LIGHT  1300   76 79  160/  4/  6 1023.0F
BALT KEY BRIDGE  1300   76     170/  3/  3 1022.3F
COVE POINT       1300   75     140/  4/  5 1022.6S
LEWISETTA        1300   77 79   50/  2/  3 1022.3F
SOLOMONS ISLAND  1300      81                N/A
PINEY POINT      1300          100/  4/  5   N/A

$$



USA.gov is the U.S. government's official web portal to all federal, state and local government web resources and services.